EW3232 Weather Reports


Display with metric or nautical units.
time (UTC)temp
F
wind
direction
speed
MPH
gust
MPH
rain 1hr
in
rain 24hr
in
rain mn
in
humidity
%
barometer
mb
20260508104504 59 41 5.0 8.0 0.00 0.13 0.00 80 1013.6
20260508101504 58 80 3.0 8.0 0.00 0.13 0.00 80 1013.7
20260508100002 58 77 1.0 8.0 0.00 0.13 0.00 79 1013.6
20260508093131 58 134 2.0 3.0 0.00 0.13 0.00 79 1013.5
20260508091650 57 160 0.0 2.0 0.00 0.13 0.00 81 1013.5
20260508084552 56 76 0.0 4.0 0.00 0.13 0.00 82 1013.4
20260508083114 57 63 3.0 5.0 0.00 0.13 0.00 80 1013.1
20260508081541 56 94 1.0 3.0 0.00 0.13 0.00 77 1013.3
20260508074523 57 38 0.0 2.0 0.00 0.13 0.00 75 1012.9
20260508073026 55 183 0.0 2.0 0.00 0.13 0.00 76 1013.1
20260508071550 55 152 0.0 2.0 0.00 0.13 0.00 78 1013.1
20260508070100 53 179 2.0 4.0 0.00 0.13 0.00 80 1013.1
20260508064624 52 29 0.0 2.0 0.00 0.13 0.00 86 1012.7
20260508063021 50 342 0.0 2.0 0.00 0.13 0.00 91 1012.5
20260508061556 48 342 0.0 2.0 0.00 0.13 0.00 90 1012.2
20260508060039 47 271 0.0 2.0 0.00 0.13 0.00 92 1012.2
20260508054626 47 260 2.0 4.0 0.00 0.13 0.00 92 1012.0
20260508053134 46 271 1.0 2.0 0.00 0.13 0.00 92 1011.9
20260508051642 46 286 1.0 4.0 0.00 0.13 0.00 93 1011.5
20260508050016 46 333 0.0 2.0 0.00 0.13 0.00 93 1011.1
20260508044527 45 252 2.0 3.0 0.00 0.13 0.00 93 1011.1
20260508043049 46 271 0.0 2.0 0.00 0.13 0.00 93 1011.3
20260508041601 46 272 2.0 4.0 0.00 0.13 0.00 93 1011.4
20260508040105 46 271 0.0 3.0 0.00 0.13 0.00 93 1011.7
20260508034629 46 271 2.0 3.0 0.00 0.13 0.00 93 1011.7
20260508033148 47 285 0.0 2.0 0.00 0.13 0.00 93 1011.7
20260508031552 47 236 0.0 2.0 0.00 0.13 0.00 94 1011.9
20260508030028 47 296 1.0 3.0 0.00 0.13 0.00 94 1011.8
20260508024548 47 273 1.0 2.0 0.00 0.13 0.00 93 1012.0
20260508023117 47 276 0.0 3.0 0.00 0.13 0.00 93 1012.0
20260508021631 47 280 1.0 2.0 0.00 0.13 0.00 93 1012.0
20260508014511 48 268 0.0 3.0 0.00 0.13 0.00 93 1012.1
20260508013027 49 285 0.0 2.0 0.00 0.13 0.00 92 1012.1
20260508011545 50 285 0.0 2.0 0.00 0.13 0.00 93 1012.2
20260508010028 50 285 1.0 3.0 0.00 0.13 0.00 93 1012.4
20260508004552 51 234 0.0 3.0 0.00 0.13 0.00 93 1012.6
20260508003108 51 260 0.0 2.0 0.00 0.13 0.00 93 1012.8
20260508001634 52 260 0.0 2.0 0.00 0.13 0.00 93 1012.9
20260508000147 51 260 1.0 2.0 0.00 0.13 0.00 93 1013.0
20260507234606 51 260 0.0 2.0 0.00 0.13 0.00 93 1013.0
20260507233032 51 260 1.0 2.0 0.00 0.13 0.00 92 1013.2
20260507230025 52 274 2.0 3.0 0.00 0.13 0.00 92 1013.2
20260507224604 52 259 2.0 3.0 0.00 0.13 0.00 92 1013.2
20260507223039 52 259 0.0 2.0 0.00 0.13 0.00 92 1013.3
20260507221550 52 259 1.0 2.0 0.00 0.13 0.00 92 1013.1
20260507220004 52 259 0.0 2.0 0.00 0.13 0.13 91 1012.9
20260507214557 52 259 0.0 2.0 0.00 0.13 0.13 91 1012.9
20260507213045 53 259 0.0 2.0 0.00 0.13 0.13 90 1012.9
20260507211606 53 252 2.0 4.0 0.00 0.13 0.13 91 1012.9
20260507210014 53 250 1.0 4.0 0.00 0.13 0.13 91 1012.8
20260507204519 54 277 1.0 2.0 0.00 0.13 0.13 91 1012.8
20260507203052 54 332 0.0 2.0 0.00 0.13 0.13 90 1012.8
20260507201538 55 65 0.0 2.0 0.00 0.13 0.13 90 1012.6
20260507200031 55 65 0.0 1.0 0.00 0.13 0.13 90 1012.5
20260507194551 55 65 0.0 2.0 0.00 0.13 0.13 89 1012.4
20260507193101 55 65 0.0 2.0 0.00 0.13 0.13 89 1012.1
20260507191619 56 65 0.0 2.0 0.00 0.13 0.13 88 1012.0
20260507190059 56 65 0.0 2.0 0.00 0.13 0.13 87 1012.0
20260507184621 57 65 0.0 2.0 0.00 0.13 0.13 86 1012.0
20260507183155 57 65 0.0 4.0 0.00 0.13 0.13 86 1011.8
20260507181510 58 46 1.0 3.0 0.00 0.13 0.13 85 1011.8
20260507180012 58 62 2.0 4.0 0.00 0.13 0.13 83 1011.7
20260507174539 58 63 2.0 6.0 0.00 0.13 0.13 81 1011.6
20260507173056 59 38 1.0 3.0 0.00 0.13 0.13 81 1011.5
20260507171627 59 81 3.0 6.0 0.00 0.13 0.13 79 1011.5
20260507170111 59 55 1.0 4.0 0.00 0.13 0.13 80 1011.4
20260507164648 59 65 2.0 5.0 0.00 0.13 0.13 79 1011.4
20260507163201 59 79 2.0 4.0 0.00 0.13 0.13 77 1011.4
20260507160008 59 62 4.0 9.0 0.00 0.13 0.13 77 1011.2
20260507154519 59 96 3.0 6.0 0.00 0.13 0.13 78 1011.0
20260507153025 59 48 3.0 6.0 0.00 0.13 0.13 77 1011.1
20260507151505 59 75 6.0 13.0 0.00 0.13 0.13 77 1011.0
20260507144515 60 116 9.0 14.0 0.00 0.13 0.13 74 1011.1
20260507143042 60 47 7.0 13.0 0.00 0.13 0.13 75 1011.3
20260507141612 61 112 8.0 13.0 0.00 0.13 0.13 72 1011.4
20260507140033 62 98 7.0 15.0 0.00 0.13 0.13 73 1011.4
20260507134514 61 80 6.0 13.0 0.00 0.13 0.13 75 1011.5
20260507133035 62 99 7.0 17.0 0.00 0.13 0.13 74 1011.5
20260507131614 61 56 7.0 12.0 0.00 0.13 0.13 70 1011.8
20260507130018 61 65 7.0 14.0 0.00 0.13 0.13 73 1012.1
20260507124537 61 79 6.0 15.0 0.00 0.13 0.13 79 1012.1
20260507123130 60 44 8.0 13.0 0.04 0.13 0.13 81 1012.2
20260507121626 59 12 6.0 12.0 0.13 0.13 0.13 85 1012.3
20260507120121 58 50 5.0 11.0 0.13 0.13 0.13 87 1012.5
20260507114637 57 37 5.0 11.0 0.13 0.13 0.13 86 1012.7
20260507113136 57 21 5.0 14.0 0.08 0.08 0.08 85 1012.8
20260507111631 60 130 7.0 13.0 0.00 0.00 0.00 77 1012.8
20260507110117 60 15 4.0 11.0 0.00 0.00 0.00 73 1012.8